RPA4498 KLGA-KRDU

Flight info

Callsign RPA4498
Flight time 1h 40m
Altitude 30000
Route WHITE Q409 VILLS NALES Q141 HOUKY TAQLE2
Aircraft E75L/M-SDE3GILORVW/S

Departure

Time 2026-05-07 02:34
Airport LaGuardia Airport (KLGA)

Arrival

Time 2026-05-07 04:14
Airport Raleigh-Durham International Airport (KRDU)
Time Latitude Longitude Altitude Speed Heading
2026-05-07 02:06 40.77631 -73.87169 17 ft 0 kts 169°
2026-05-07 02:25 40.77649 -73.87177 19 ft 4 kts 144°
2026-05-07 02:26 40.77667 -73.87202 19 ft 4 kts 129°
2026-05-07 02:26 40.77681 -73.87232 20 ft 4 kts 122°
2026-05-07 02:26 40.77695 -73.87262 17 ft 4 kts 125°
2026-05-07 02:26 40.77711 -73.87288 17 ft 2 kts 130°
2026-05-07 02:27 40.77712 -73.87290 17 ft 3 kts 130°
2026-05-07 02:30 40.77709 -73.87282 17 ft 0 kts 115°
2026-05-07 02:30 40.77709 -73.87281 17 ft 0 kts 98°
2026-05-07 02:30 40.77710 -73.87280 17 ft 1 kts 74°
2026-05-07 02:31 40.77717 -73.87269 17 ft 3 kts 40°
2026-05-07 02:31 40.77755 -73.87255 14 ft 11 kts
2026-05-07 02:31 40.77837 -73.87284 11 ft 10 kts 326°
2026-05-07 02:31 40.77877 -73.87349 13 ft 8 kts 306°
2026-05-07 02:32 40.77905 -73.87408 13 ft 9 kts 301°
2026-05-07 02:32 40.77958 -73.87523 14 ft 21 kts 301°
2026-05-07 02:32 40.78040 -73.87698 13 ft 22 kts 300°
2026-05-07 02:32 40.78102 -73.87821 16 ft 4 kts 305°
2026-05-07 02:33 40.78112 -73.87838 18 ft 2 kts 314°
2026-05-07 02:33 40.78149 -73.87861 16 ft 8 kts 350°
2026-05-07 02:33 40.78196 -73.87846 16 ft 5 kts 54°
2026-05-07 02:33 40.78200 -73.87801 16 ft 5 kts 105°
2026-05-07 02:34 40.78050 -73.87490 14 ft 82 kts 126°
2026-05-07 02:34 40.77633 -73.86562 89 ft 145 kts 121°
2026-05-07 02:34 40.77120 -73.85259 677 ft 166 kts 124°
2026-05-07 02:34 40.76393 -73.84139 1698 ft 158 kts 147°
2026-05-07 02:35 40.75432 -73.83408 2481 ft 165 kts 167°
2026-05-07 02:35 40.74221 -73.83106 3125 ft 194 kts 185°
2026-05-07 02:35 40.72805 -73.83310 4065 ft 212 kts 201°
2026-05-07 02:35 40.71514 -73.84020 5855 ft 193 kts 215°
2026-05-07 02:36 40.70154 -73.84644 6353 ft 238 kts 191°
2026-05-07 02:36 40.68329 -73.84478 6273 ft 277 kts 187°
2026-05-07 02:36 40.66493 -73.85025 6179 ft 269 kts 208°
2026-05-07 02:36 40.64863 -73.86144 6079 ft 263 kts 219°
2026-05-07 02:37 40.63380 -73.87557 5961 ft 262 kts 221°
2026-05-07 02:37 40.61896 -73.88950 5855 ft 261 kts 218°
2026-05-07 02:37 40.60360 -73.90231 5735 ft 264 kts 217°
2026-05-07 02:37 40.58792 -73.91503 5717 ft 265 kts 216°
2026-05-07 02:38 40.57236 -73.92760 6710 ft 260 kts 217°
2026-05-07 02:38 40.55694 -73.94012 7579 ft 261 kts 217°
2026-05-07 02:38 40.54144 -73.95282 8410 ft 262 kts 217°
2026-05-07 02:38 40.52610 -73.96517 9169 ft 265 kts 217°
2026-05-07 02:39 40.51023 -73.97792 9932 ft 265 kts 217°
2026-05-07 02:39 40.49439 -73.99069 10582 ft 269 kts 217°
2026-05-07 02:39 40.47827 -74.00342 11271 ft 272 kts 216°
2026-05-07 02:39 40.46153 -74.01539 11970 ft 276 kts 214°
2026-05-07 02:40 40.44419 -74.02686 12694 ft 281 kts 210°
2026-05-07 02:40 40.42591 -74.03681 13481 ft 286 kts 208°
2026-05-07 02:40 40.40740 -74.04647 14207 ft 289 kts 208°
2026-05-07 02:40 40.38850 -74.05618 14909 ft 293 kts 208°
2026-05-07 02:41 40.36915 -74.06614 15362 ft 307 kts 208°
2026-05-07 02:41 40.34869 -74.07667 15638 ft 325 kts 208°
2026-05-07 02:41 40.32711 -74.08770 15932 ft 340 kts 207°
2026-05-07 02:41 40.30489 -74.09908 16278 ft 351 kts 207°
2026-05-07 02:42 40.28201 -74.11077 16855 ft 356 kts 208°
2026-05-07 02:42 40.25884 -74.12264 17432 ft 360 kts 208°
2026-05-07 02:42 40.23527 -74.13473 18016 ft 364 kts 208°
2026-05-07 02:42 40.21153 -74.14686 18580 ft 367 kts 208°
2026-05-07 02:43 40.18763 -74.15907 19184 ft 370 kts 209°
2026-05-07 02:43 40.16356 -74.17138 19809 ft 372 kts 209°
2026-05-07 02:43 40.13937 -74.18374 20458 ft 375 kts 210°
2026-05-07 02:43 40.11501 -74.19616 21089 ft 377 kts 210°
2026-05-07 02:44 40.09041 -74.20872 21679 ft 381 kts 210°
2026-05-07 02:44 40.06566 -74.22132 22259 ft 383 kts 211°
2026-05-07 02:44 40.04925 -74.22967 22622 ft 384 kts 211°
2026-05-07 02:44 40.01733 -74.24919 23322 ft 381 kts 217°
2026-05-07 02:45 39.99403 -74.26578 23797 ft 380 kts 219°
2026-05-07 02:45 39.97942 -74.27808 24085 ft 375 kts 224°
2026-05-07 02:45 39.95810 -74.29782 24555 ft 376 kts 224°
2026-05-07 02:45 39.93698 -74.31779 25029 ft 377 kts 225°
2026-05-07 02:46 39.90878 -74.34466 25650 ft 378 kts 225°
2026-05-07 02:46 39.89435 -74.35841 25953 ft 379 kts 225°
2026-05-07 02:46 39.87304 -74.37869 26397 ft 381 kts 225°
2026-05-07 02:46 39.85163 -74.39907 26827 ft 381 kts 226°
2026-05-07 02:47 39.83077 -74.42027 27225 ft 380 kts 228°
2026-05-07 02:47 39.81063 -74.44205 27611 ft 379 kts 230°
2026-05-07 02:47 39.79166 -74.46613 27980 ft 377 kts 233°
2026-05-07 02:47 39.77343 -74.48990 28324 ft 378 kts 233°
2026-05-07 02:48 39.75488 -74.51449 28669 ft 379 kts 233°
2026-05-07 02:48 39.73640 -74.53902 28998 ft 380 kts 233°
2026-05-07 02:48 39.71789 -74.56355 29382 ft 380 kts 233°
2026-05-07 02:48 39.69941 -74.58800 29748 ft 372 kts 233°
2026-05-07 02:49 39.68180 -74.61123 29820 ft 359 kts 234°
2026-05-07 02:49 39.66411 -74.63480 29867 ft 367 kts 234°
2026-05-07 02:49 39.62773 -74.68275 29889 ft 379 kts 233°
2026-05-07 02:50 39.59033 -74.73207 29892 ft 390 kts 233°
2026-05-07 02:50 39.55158 -74.78300 29883 ft 400 kts 233°
2026-05-07 02:51 39.51276 -74.83398 29887 ft 397 kts 233°
2026-05-07 02:51 39.47389 -74.88496 29879 ft 398 kts 233°
2026-05-07 02:52 39.43501 -74.93587 29888 ft 397 kts 233°
2026-05-07 02:52 39.39624 -74.98652 29886 ft 398 kts 233°
2026-05-07 02:53 39.35717 -75.03749 29893 ft 399 kts 233°
2026-05-07 02:53 39.31800 -75.08850 29885 ft 400 kts 233°
2026-05-07 02:54 39.27875 -75.13954 29890 ft 400 kts 233°
2026-05-07 02:54 39.23937 -75.19066 29885 ft 401 kts 233°
2026-05-07 02:55 39.19996 -75.24172 29881 ft 402 kts 233°
2026-05-07 02:55 39.16081 -75.29237 29889 ft 402 kts 232°
2026-05-07 02:56 39.12134 -75.34335 29883 ft 401 kts 232°
2026-05-07 02:56 39.08183 -75.39429 29890 ft 402 kts 232°
2026-05-07 02:57 39.04227 -75.44520 29889 ft 402 kts 232°
2026-05-07 02:57 39.00269 -75.49607 29887 ft 402 kts 232°
2026-05-07 02:58 38.96308 -75.54688 29886 ft 402 kts 232°
2026-05-07 02:58 38.92365 -75.59739 29884 ft 401 kts 232°
2026-05-07 02:59 38.88867 -75.65218 29896 ft 396 kts 239°
2026-05-07 02:59 38.85941 -75.71158 29884 ft 392 kts 244°
2026-05-07 03:00 38.83214 -75.77190 29888 ft 391 kts 244°
2026-05-07 03:00 38.80485 -75.83241 29889 ft 391 kts 244°
2026-05-07 03:01 38.77779 -75.89230 29884 ft 391 kts 244°
2026-05-07 03:01 38.74972 -75.95220 29888 ft 395 kts 239°
2026-05-07 03:02 38.71146 -76.00419 29889 ft 403 kts 231°
2026-05-07 03:02 38.66795 -76.05046 29897 ft 409 kts 226°
2026-05-07 03:03 38.62249 -76.09485 29893 ft 410 kts 225°
2026-05-07 03:03 38.57706 -76.13893 29904 ft 410 kts 225°
2026-05-07 03:04 38.53151 -76.18306 29892 ft 411 kts 225°
2026-05-07 03:04 38.48613 -76.22697 29879 ft 411 kts 225°
2026-05-07 03:05 38.44043 -76.27112 29881 ft 412 kts 225°
2026-05-07 03:05 38.39460 -76.31532 29879 ft 413 kts 225°
2026-05-07 03:06 38.34872 -76.35950 29880 ft 414 kts 225°
2026-05-07 03:06 38.30326 -76.40464 29878 ft 412 kts 227°
2026-05-07 03:07 38.26231 -76.45431 29881 ft 408 kts 232°
2026-05-07 03:07 38.22322 -76.50653 29876 ft 408 kts 233°
2026-05-07 03:08 38.18419 -76.55894 29899 ft 408 kts 233°
2026-05-07 03:08 38.14505 -76.61140 29892 ft 408 kts 233°
2026-05-07 03:09 38.10583 -76.66387 29886 ft 409 kts 233°
2026-05-07 03:09 38.06659 -76.71627 29886 ft 410 kts 233°
2026-05-07 03:10 38.02716 -76.76882 29892 ft 411 kts 233°
2026-05-07 03:10 37.98697 -76.82043 29904 ft 417 kts 227°
2026-05-07 03:11 37.96295 -76.84131 29906 ft 428 kts 218°
2026-05-07 03:11 37.93628 -76.85878 29909 ft 435 kts 213°
2026-05-07 03:11 37.87917 -76.88604 29906 ft 440 kts 209°
2026-05-07 03:12 37.82136 -76.91232 29903 ft 442 kts 209°
2026-05-07 03:12 37.79261 -76.92532 28852 ft 438 kts 209°
2026-05-07 03:12 37.76374 -76.93846 27364 ft 441 kts 208°
2026-05-07 03:13 37.73494 -76.95145 26181 ft 436 kts 208°
2026-05-07 03:13 37.70649 -76.96432 25053 ft 431 kts 208°
2026-05-07 03:13 37.67835 -76.97705 23968 ft 428 kts 207°
2026-05-07 03:13 37.65043 -76.98966 22822 ft 424 kts 207°
2026-05-07 03:14 37.62299 -77.00200 22238 ft 410 kts 207°
2026-05-07 03:14 37.59596 -77.01426 22072 ft 416 kts 207°
2026-05-07 03:14 37.54148 -77.03877 21936 ft 418 kts 207°
2026-05-07 03:15 37.51419 -77.05105 21910 ft 418 kts 207°
2026-05-07 03:15 37.48672 -77.06340 21897 ft 418 kts 207°
2026-05-07 03:15 37.45927 -77.07573 21901 ft 418 kts 207°
2026-05-07 03:15 37.43191 -77.08801 21904 ft 419 kts 207°
2026-05-07 03:16 37.40435 -77.10037 21905 ft 419 kts 207°
2026-05-07 03:16 37.37685 -77.11269 21905 ft 419 kts 207°
2026-05-07 03:16 37.34924 -77.12490 21906 ft 420 kts 207°
2026-05-07 03:16 37.32274 -77.13858 21905 ft 415 kts 212°
2026-05-07 03:17 37.29609 -77.15360 21913 ft 415 kts 212°
2026-05-07 03:17 37.27017 -77.16859 21911 ft 415 kts 212°
2026-05-07 03:17 37.24391 -77.18379 21925 ft 416 kts 212°
2026-05-07 03:17 37.21764 -77.19901 21937 ft 416 kts 212°
2026-05-07 03:18 37.19133 -77.21421 21924 ft 416 kts 212°
2026-05-07 03:18 37.16509 -77.22946 21935 ft 413 kts 214°
2026-05-07 03:18 37.14014 -77.24718 21933 ft 412 kts 217°
2026-05-07 03:18 37.11533 -77.26509 21933 ft 411 kts 217°
2026-05-07 03:19 37.09065 -77.28327 21929 ft 411 kts 217°
2026-05-07 03:19 37.06620 -77.30098 21923 ft 412 kts 217°
2026-05-07 03:19 37.04161 -77.31938 21934 ft 411 kts 217°
2026-05-07 03:19 37.01690 -77.33779 21929 ft 411 kts 217°
2026-05-07 03:20 36.99225 -77.35618 21932 ft 412 kts 217°
2026-05-07 03:20 36.96758 -77.37457 21921 ft 412 kts 217°
2026-05-07 03:20 36.94290 -77.39293 21927 ft 412 kts 217°
2026-05-07 03:20 36.91823 -77.41128 21939 ft 412 kts 217°
2026-05-07 03:21 36.89362 -77.42956 21940 ft 412 kts 217°
2026-05-07 03:21 36.86890 -77.44795 21942 ft 412 kts 217°
2026-05-07 03:21 36.84460 -77.46597 21949 ft 412 kts 217°
2026-05-07 03:21 36.81989 -77.48424 21949 ft 412 kts 217°
2026-05-07 03:22 36.79518 -77.50248 21951 ft 412 kts 217°
2026-05-07 03:22 36.77046 -77.52074 21952 ft 413 kts 217°
2026-05-07 03:22 36.74573 -77.53898 21954 ft 413 kts 217°
2026-05-07 03:22 36.72099 -77.55721 21952 ft 413 kts 217°
2026-05-07 03:23 36.69629 -77.57540 21952 ft 413 kts 217°
2026-05-07 03:23 36.67155 -77.59361 21953 ft 413 kts 217°
2026-05-07 03:23 36.64684 -77.61177 21952 ft 412 kts 217°
2026-05-07 03:23 36.62214 -77.62992 21953 ft 413 kts 217°
2026-05-07 03:24 36.59745 -77.64806 21946 ft 413 kts 217°
2026-05-07 03:24 36.57270 -77.66622 21944 ft 412 kts 217°
2026-05-07 03:24 36.54844 -77.68492 21947 ft 409 kts 221°
2026-05-07 03:24 36.52640 -77.70459 21949 ft 407 kts 223°
2026-05-07 03:25 36.50409 -77.72681 21942 ft 402 kts 229°
2026-05-07 03:25 36.48361 -77.75066 21952 ft 402 kts 229°
2026-05-07 03:25 36.46358 -77.77412 21949 ft 402 kts 229°
2026-05-07 03:25 36.44320 -77.79822 21947 ft 401 kts 229°
2026-05-07 03:26 36.42319 -77.82191 21955 ft 401 kts 229°
2026-05-07 03:26 36.40295 -77.84585 21951 ft 401 kts 229°
2026-05-07 03:26 36.38273 -77.86972 21940 ft 401 kts 229°
2026-05-07 03:26 36.36356 -77.89235 21945 ft 401 kts 229°
2026-05-07 03:27 36.34330 -77.91627 21949 ft 401 kts 229°
2026-05-07 03:27 36.32306 -77.94011 21954 ft 401 kts 229°
2026-05-07 03:27 36.30263 -77.96417 21943 ft 401 kts 229°
2026-05-07 03:27 36.28249 -77.98786 21935 ft 401 kts 229°
2026-05-07 03:28 36.26220 -78.01175 21940 ft 400 kts 230°
2026-05-07 03:28 36.24360 -78.03641 21935 ft 397 kts 235°
2026-05-07 03:28 36.22674 -78.06347 21947 ft 393 kts 240°
2026-05-07 03:28 36.21445 -78.09325 21954 ft 388 kts 251°
2026-05-07 03:29 36.20378 -78.12405 21964 ft 388 kts 250°
2026-05-07 03:29 36.19344 -78.15480 21955 ft 387 kts 250°
2026-05-07 03:29 36.18307 -78.18564 21961 ft 388 kts 250°
2026-05-07 03:29 36.17296 -78.21578 21966 ft 388 kts 250°
2026-05-07 03:30 36.16299 -78.24743 21969 ft 385 kts 257°
2026-05-07 03:30 36.16107 -78.28009 21969 ft 383 kts 276°
2026-05-07 03:30 36.16972 -78.31116 21981 ft 390 kts 296°
2026-05-07 03:30 36.18082 -78.32894 21998 ft 398 kts 308°
2026-05-07 03:31 36.20758 -78.36089 21994 ft 399 kts 310°
2026-05-07 03:31 36.22013 -78.37635 21971 ft 398 kts 308°
2026-05-07 03:31 36.24192 -78.39922 21970 ft 406 kts 318°
2026-05-07 03:31 36.26457 -78.41980 21956 ft 399 kts 311°
2026-05-07 03:32 36.28163 -78.44614 21972 ft 390 kts 298°
2026-05-07 03:32 36.29409 -78.47546 21982 ft 385 kts 290°
2026-05-07 03:32 36.30390 -78.50656 21980 ft 384 kts 287°
2026-05-07 03:32 36.30999 -78.53855 21973 ft 381 kts 277°
2026-05-07 03:33 36.31257 -78.57045 21972 ft 380 kts 270°
2026-05-07 03:33 36.30923 -78.60360 21969 ft 383 kts 257°
2026-05-07 03:33 36.29848 -78.63324 21970 ft 389 kts 242°
2026-05-07 03:33 36.28072 -78.65762 21971 ft 402 kts 226°
2026-05-07 03:34 36.25578 -78.67494 21963 ft 421 kts 208°
2026-05-07 03:34 36.22645 -78.68125 21953 ft 442 kts 188°
2026-05-07 03:34 36.19539 -78.67516 21954 ft 464 kts 170°
2026-05-07 03:34 36.16607 -78.65685 21960 ft 482 kts 151°
2026-05-07 03:35 36.14090 -78.62866 21970 ft 492 kts 139°
2026-05-07 03:35 36.11615 -78.59994 21950 ft 483 kts 150°
2026-05-07 03:35 36.08713 -78.58108 21949 ft 464 kts 168°
2026-05-07 03:35 36.05732 -78.57418 21959 ft 445 kts 186°
2026-05-07 03:36 36.02668 -78.57936 21972 ft 424 kts 206°
2026-05-07 03:36 36.00115 -78.59597 21966 ft 406 kts 225°
2026-05-07 03:36 35.98302 -78.62155 21968 ft 391 kts 244°
2026-05-07 03:36 35.97364 -78.65174 21983 ft 386 kts 256°
2026-05-07 03:37 35.96233 -78.68303 21979 ft 392 kts 243°
2026-05-07 03:37 35.94720 -78.71046 21961 ft 397 kts 236°
2026-05-07 03:37 35.92772 -78.73561 21975 ft 400 kts 231°
2026-05-07 03:37 35.90826 -78.76026 21981 ft 401 kts 231°
2026-05-07 03:38 35.88857 -78.78454 21959 ft 401 kts 231°
2026-05-07 03:38 35.86918 -78.80854 21974 ft 401 kts 231°
2026-05-07 03:38 35.84975 -78.83246 21974 ft 400 kts 231°
2026-05-07 03:38 35.82971 -78.85718 21972 ft 401 kts 231°
2026-05-07 03:39 35.81000 -78.88144 21969 ft 401 kts 231°
2026-05-07 03:39 35.79033 -78.90567 21972 ft 401 kts 231°
2026-05-07 03:39 35.77059 -78.92995 21964 ft 401 kts 231°
2026-05-07 03:39 35.75354 -78.95092 21963 ft 401 kts 231°
2026-05-07 03:40 35.75044 -78.95473 21962 ft 401 kts 231°
2026-05-07 03:41 35.73058 -78.97911 21979 ft 401 kts 231°
2026-05-07 03:41 35.71077 -79.00342 21982 ft 401 kts 230°
2026-05-07 03:41 35.69103 -79.02766 21980 ft 401 kts 230°
2026-05-07 03:41 35.67125 -79.05189 21987 ft 401 kts 231°
2026-05-07 03:42 35.65162 -79.07594 21995 ft 401 kts 231°
2026-05-07 03:42 35.63195 -79.10001 21988 ft 401 kts 231°
2026-05-07 03:42 35.61209 -79.12429 21985 ft 401 kts 230°
2026-05-07 03:42 35.59230 -79.14848 21992 ft 401 kts 231°
2026-05-07 03:43 35.57264 -79.17250 21998 ft 400 kts 231°
2026-05-07 03:43 35.55279 -79.19672 21990 ft 400 kts 231°
2026-05-07 03:43 35.53303 -79.22081 21989 ft 400 kts 231°
2026-05-07 03:43 35.51322 -79.24495 21987 ft 400 kts 231°
2026-05-07 03:44 35.49342 -79.26905 21987 ft 400 kts 231°
2026-05-07 03:44 35.47362 -79.29316 21984 ft 400 kts 231°
2026-05-07 03:44 35.45409 -79.31690 21976 ft 401 kts 231°
2026-05-07 03:44 35.43403 -79.34128 21998 ft 400 kts 231°
2026-05-07 03:45 35.41453 -79.36495 22005 ft 401 kts 231°
2026-05-07 03:45 35.39468 -79.38902 22005 ft 401 kts 231°
2026-05-07 03:45 35.37482 -79.41310 22004 ft 401 kts 231°
2026-05-07 03:45 35.35497 -79.43714 22015 ft 401 kts 231°
2026-05-07 03:46 35.33508 -79.46122 22023 ft 402 kts 230°
2026-05-07 03:46 35.31518 -79.48530 22010 ft 402 kts 230°
2026-05-07 03:46 35.29528 -79.50935 22012 ft 402 kts 230°
2026-05-07 03:46 35.27536 -79.53340 22014 ft 402 kts 230°
2026-05-07 03:47 35.25550 -79.55739 22005 ft 402 kts 230°
2026-05-07 03:47 35.23549 -79.58151 22004 ft 402 kts 230°
2026-05-07 03:47 35.21585 -79.60519 22006 ft 403 kts 230°
2026-05-07 03:47 35.19561 -79.62957 21961 ft 403 kts 230°
2026-05-07 03:48 35.17563 -79.65361 21956 ft 403 kts 230°
2026-05-07 03:48 35.15586 -79.67738 21970 ft 404 kts 230°
2026-05-07 03:48 35.13581 -79.70148 21967 ft 404 kts 230°
2026-05-07 03:48 35.11579 -79.72552 21962 ft 404 kts 230°
2026-05-07 03:49 35.09548 -79.74989 21979 ft 404 kts 230°
2026-05-07 03:49 35.07567 -79.77364 21987 ft 405 kts 230°
2026-05-07 03:49 35.05555 -79.79775 21982 ft 405 kts 230°
2026-05-07 03:49 35.03547 -79.82179 21987 ft 405 kts 230°
2026-05-07 03:50 35.01533 -79.84589 21989 ft 405 kts 230°
2026-05-07 03:50 34.99522 -79.86993 21987 ft 406 kts 230°
2026-05-07 03:50 34.97507 -79.89401 21984 ft 406 kts 230°
2026-05-07 03:50 34.95484 -79.91816 21986 ft 406 kts 230°
2026-05-07 03:51 34.93470 -79.94218 22013 ft 407 kts 229°
2026-05-07 03:51 34.91450 -79.96645 22009 ft 405 kts 231°
2026-05-07 03:51 34.89935 -79.99417 21995 ft 396 kts 250°
2026-05-07 03:51 34.89376 -80.02648 22005 ft 392 kts 269°
2026-05-07 03:52 34.89877 -80.05915 22019 ft 395 kts 289°
2026-05-07 03:52 34.91376 -80.08745 22020 ft 405 kts 309°
2026-05-07 03:52 34.93691 -80.10763 22017 ft 420 kts 328°
2026-05-07 03:52 34.96564 -80.11698 22022 ft 438 kts 348°
2026-05-07 03:53 34.99655 -80.11398 22023 ft 457 kts
2026-05-07 03:53 35.02621 -80.09864 22020 ft 475 kts 25°
2026-05-07 03:53 35.05173 -80.07199 22010 ft 490 kts 44°
2026-05-07 03:53 35.07026 -80.03652 22023 ft 501 kts 62°
2026-05-07 03:54 35.08242 -79.99660 22034 ft 503 kts 69°
2026-05-07 03:54 35.09305 -79.95581 22023 ft 504 kts 70°
2026-05-07 03:54 35.10337 -79.91486 22007 ft 504 kts 70°
2026-05-07 03:54 35.11362 -79.87444 21999 ft 504 kts 70°
2026-05-07 03:55 35.12427 -79.83350 21997 ft 504 kts 70°
2026-05-07 03:55 35.13684 -79.79368 21958 ft 499 kts 59°
2026-05-07 03:55 35.15527 -79.75819 21965 ft 494 kts 49°
2026-05-07 03:55 35.17653 -79.72542 21975 ft 491 kts 44°
2026-05-07 03:56 35.19947 -79.69441 21964 ft 489 kts 41°
2026-05-07 03:56 35.22278 -79.66484 21992 ft 488 kts 40°
2026-05-07 03:56 35.24664 -79.63529 22002 ft 488 kts 39°
2026-05-07 03:56 35.27156 -79.60736 21996 ft 483 kts 33°
2026-05-07 03:57 35.29729 -79.58078 22011 ft 483 kts 33°
2026-05-07 03:57 35.32319 -79.55457 22002 ft 483 kts 33°
2026-05-07 03:57 35.34902 -79.52846 22004 ft 482 kts 33°
2026-05-07 03:57 35.37474 -79.50246 21113 ft 477 kts 33°
2026-05-07 03:58 35.40023 -79.47671 20101 ft 469 kts 33°
2026-05-07 03:58 35.42517 -79.45147 19139 ft 462 kts 33°
2026-05-07 03:58 35.44980 -79.42654 18201 ft 455 kts 33°
2026-05-07 03:58 35.47399 -79.40207 17137 ft 449 kts 34°
2026-05-07 03:59 35.49791 -79.37779 16135 ft 443 kts 34°
2026-05-07 03:59 35.52149 -79.35383 15366 ft 433 kts 35°
2026-05-07 03:59 35.54471 -79.33021 15181 ft 440 kts 36°
2026-05-07 03:59 35.56808 -79.30640 15086 ft 436 kts 36°
2026-05-07 04:00 35.59139 -79.28267 15029 ft 436 kts 36°
2026-05-07 04:00 35.61485 -79.25879 15004 ft 436 kts 36°
2026-05-07 04:00 35.63821 -79.23497 14990 ft 436 kts 36°
2026-05-07 04:00 35.66120 -79.21145 14966 ft 414 kts 36°
2026-05-07 04:01 35.68263 -79.18956 14956 ft 388 kts 35°
2026-05-07 04:01 35.70199 -79.16979 14944 ft 366 kts 35°
2026-05-07 04:01 35.72109 -79.15028 14935 ft 349 kts 35°
2026-05-07 04:01 35.73952 -79.13148 14941 ft 348 kts 34°
2026-05-07 04:02 35.75832 -79.11227 14957 ft 351 kts 35°
2026-05-07 04:02 35.77710 -79.09299 14974 ft 352 kts 35°
2026-05-07 04:02 35.79587 -79.07375 14586 ft 351 kts 35°
2026-05-07 04:02 35.81464 -79.05451 14102 ft 349 kts 36°
2026-05-07 04:03 35.83340 -79.03527 13292 ft 357 kts 36°
2026-05-07 04:03 35.85272 -79.01539 12504 ft 363 kts 36°
2026-05-07 04:03 35.87176 -78.99577 11947 ft 359 kts 36°
2026-05-07 04:03 35.89088 -78.97612 11407 ft 356 kts 36°
2026-05-07 04:04 35.90981 -78.95664 10870 ft 353 kts 36°
2026-05-07 04:04 35.92855 -78.93737 10329 ft 350 kts 36°
2026-05-07 04:04 35.94718 -78.91815 9859 ft 345 kts 36°
2026-05-07 04:04 35.96518 -78.89957 9498 ft 330 kts 36°
2026-05-07 04:05 35.98249 -78.88171 8905 ft 320 kts 36°
2026-05-07 04:05 35.99955 -78.86414 8216 ft 316 kts 36°
2026-05-07 04:05 36.01630 -78.84683 7520 ft 313 kts 36°
2026-05-07 04:05 36.03155 -78.82776 6808 ft 315 kts 54°
2026-05-07 04:06 36.04070 -78.80316 6115 ft 314 kts 70°
2026-05-07 04:06 36.04753 -78.77810 5282 ft 309 kts 73°
2026-05-07 04:06 36.05398 -78.75286 4378 ft 306 kts 74°
2026-05-07 04:06 36.06030 -78.72787 4184 ft 303 kts 74°
2026-05-07 04:07 36.06756 -78.70342 4095 ft 303 kts 68°
2026-05-07 04:07 36.07575 -78.67985 4024 ft 290 kts 67°
2026-05-07 04:07 36.08370 -78.65741 3984 ft 283 kts 67°
2026-05-07 04:07 36.09159 -78.63530 3989 ft 281 kts 67°
2026-05-07 04:08 36.09937 -78.61306 3998 ft 281 kts 71°
2026-05-07 04:08 36.10171 -78.58935 3984 ft 276 kts 103°
2026-05-07 04:08 36.09493 -78.56819 3994 ft 259 kts 136°
2026-05-07 04:08 36.08131 -78.55533 4006 ft 239 kts 169°
2026-05-07 04:09 36.06552 -78.55454 4027 ft 224 kts 204°
2026-05-07 04:09 36.05342 -78.56539 4051 ft 214 kts 233°
2026-05-07 04:09 36.04473 -78.57998 4042 ft 212 kts 236°
2026-05-07 04:09 36.03624 -78.59477 4179 ft 204 kts 236°
2026-05-07 04:10 36.02819 -78.60853 4223 ft 193 kts 235°
2026-05-07 04:10 36.02018 -78.62104 4202 ft 181 kts 230°
2026-05-07 04:10 36.01159 -78.63228 4190 ft 182 kts 228°
2026-05-07 04:10 36.00268 -78.64337 4201 ft 181 kts 227°
2026-05-07 04:11 35.98750 -78.66200 4199 ft 180 kts 229°
2026-05-07 04:11 35.97868 -78.67321 4208 ft 183 kts 228°
2026-05-07 04:11 35.96975 -78.68427 4217 ft 182 kts 227°
2026-05-07 04:12 35.96055 -78.69510 4227 ft 182 kts 227°
2026-05-07 04:12 35.95178 -78.70618 4224 ft 180 kts 229°
2026-05-07 04:12 35.94306 -78.71728 4189 ft 180 kts 226°
2026-05-07 04:12 35.93403 -78.72838 3615 ft 182 kts 225°
2026-05-07 04:13 35.92527 -78.73891 2937 ft 169 kts 226°
2026-05-07 04:13 35.91753 -78.74950 2219 ft 163 kts 227°
2026-05-07 04:13 35.90961 -78.75970 1416 ft 167 kts 221°
2026-05-07 04:13 35.90105 -78.76922 831 ft 163 kts 224°
2026-05-07 04:14 35.89319 -78.77881 415 ft 154 kts 226°
2026-05-07 04:14 35.88629 -78.78728 391 ft 123 kts 223°
2026-05-07 04:14 35.88155 -78.79328 390 ft 62 kts 225°
2026-05-07 04:14 35.87959 -78.79476 391 ft 18 kts 163°
2026-05-07 04:15 35.87925 -78.79455 390 ft 3 kts 169°
2026-05-07 04:15 35.87892 -78.79462 390 ft 6 kts 205°
2026-05-07 04:15 35.87855 -78.79500 390 ft 8 kts 224°
2026-05-07 04:15 35.87808 -78.79557 389 ft 11 kts 225°
2026-05-07 04:16 35.87751 -78.79630 389 ft 13 kts 226°
2026-05-07 04:16 35.87717 -78.79671 389 ft 0 kts 224°
2026-05-07 04:16 35.87710 -78.79676 389 ft 1 kts 191°
2026-05-07 04:17 35.87692 -78.79671 389 ft 7 kts 171°
2026-05-07 04:17 35.87636 -78.79683 389 ft 2 kts 186°
2026-05-07 04:17 35.87623 -78.79674 389 ft 4 kts 142°
2026-05-07 04:17 35.87597 -78.79645 389 ft 7 kts 135°
2026-05-07 04:18 35.87587 -78.79633 389 ft 0 kts 139°
2026-05-07 04:18 35.87586 -78.79632 389 ft 0 kts 142°